Andalusia, AL

9:00 PM CDT on August 31, 2016 (GMT -0500)
Chigger Hill off Moore Rd | | Change Station

Elev 280 ft 31.25 °N, 86.50 °W | Updated 5 seconds ago

Partly Cloudy
Partly Cloudy
79.8 °F
Feels Like 84 °F
N
0.0
Wind Variable Wind from East
Gusts 0.0 mph

Today
High -- | Low -- °F
--% Chance of Precip.
Yesterday
High -- | Low -- °F
Precip. -- in
Pressure 29.85 in
Visibility 10.0 miles
Clouds Few 6000 ft
Heat Index 84 °F
Dew Point 73 °F
Humidity 81%
Rainfall 0.00 in
Snow Depth Not available.
6:22 AM 7:10 PM
Waning Crescent, 0% visible
METAR K79J 010156Z AUTO 00000KT 10SM FEW060 29/22 A2986 RMK AO2 SLP107 T02890222
Pressure 29.85 in
Visibility 10.0 miles
Clouds Few 6000 ft
Heat Index 84 °F
Dew Point 73 °F
Humidity 81%
Rainfall 0.00 in
Snow Depth Not available.
6:22 AM 7:10 PM
Waning Crescent, 0% visible
METAR K79J 010156Z AUTO 00000KT 10SM FEW060 29/22 A2986 RMK AO2 SLP107 T02890222
A tropical storm warning and hurricane watch is in effect for parts of the northern Florida Gulf Coast as Tropical Storm Hermine intensifies in the eastern Gulf of Mexico. A tropical storm watch is in effect for parts of the Atlantic coast of Georgia and Florida, as Hermine is expected to move near or just inland from the Southeast U.S. Coast on Friday and Friday night. Very heavy rains are possible near Hermine's path.

10-Day Weather Forecast

Almanac

Astronomy

Aug. 31, 2016 Rise Set
Actual Time
Civil Twilight
Nautical Twilight
Astronomical Twilight
Moon
Length of Visible Light
Length of Day
Tomorrow will be .
, % of the Moon is Illuminated

Today's Extremes

State Highs State Lows

Community

WunderPhotos

Upload Photos

1,936,266 photos uploaded!

WunderBlog® & News

Nearby

Air Quality

  Air Quality AQ Index Pollutant
Not available.

Snow Depth

Station Depth Elevation

Earthquake Activity

City Distance Mag. Time & Date
Minimum magnitude displayed is 2.5.

Coastal Water Temperatures

Place Temperature

Stations

Nearby Weather Stations

Station Location Temp. Windchill Dew Point Humidity Wind Precip. Elev Updated Type
                   

Watches & Warnings

There are currently no watches in effect.